sat.trackr.live / text

‹ back to catalog

STARLINK-6174

NORAD 57366 · 2023-099AQ

PAYLOAD ACTIVE UNKNOWN

§ Identity

Operator
Country
US
Launch date
2023-07-16
Launch site
AFETR
Launch vehicle
Mass (kg)
RCS (m²)

Purposes: comms

External: N2YO · Heavens-Above · Gunter

§ Orbital elements

Epoch: 2026-09-20T04:11:30.441696Z

Period
94.27 min
Inclination
43.0007°
Eccentricity
0.0000966
Mean motion
15.27572935 rev/d
Perigee alt
482.4 km
Apogee alt
483.7 km
Semi-major
6,861.2 km
B*
2.4772e-6
RAAN
223.2951°
Arg perigee
265.8703°
Mean anomaly
94.2038°
Rev number
17,594

§ Raw data

STARLINK-61741 57366U 23099AQ  26263.17465789 -.00000194  00000+0  24772-5 0  99972 57366  43.0007 223.2951 0000966 265.8703  94.2038 15.27572935175947

JSON: /api/v1/satellites/57366 · /tle

For live sub-satellite position, see the globe view (requires WebGL).

§ Visibility from observer

Set your observer location to see the next 7 days of passes ≥ 10°. The values pass through the URL so the page stays shareable.

No JS? Fill the form by hand. The geolocation button needs JavaScript.